Weather History for Lakeland Region, FL

Change the Weather History Date:

Saturday, July 20, 2013

  Actual Average Record
Temperature  
Mean Temperature 81 °F -  
Max Temperature 91 °F 88 °F 96 °F (1986)
Min Temperature 71 °F 71 °F 69 °F (2009)
Cooling Degree Days 16    
Growing Degree Days 31 (Base 50)    
Moisture  
Dew Point 71 °F    
Average Humidity 89    
Maximum Humidity 100    
Minimum Humidity 49    
Precipitation  
Precipitation 0.00 in - - ()
Sea Level Pressure  
Sea Level Pressure 30.09 in    
Wind  
Wind Speed 2 mph (SE)    
Max Wind Speed 18 mph    
Max Gust Speed 28 mph    
Visibility 10 miles    
Events Rain , Thunderstorm    
Averages and records for this station are not official NWS values.
T = Trace of Precipitation, MM = Missing Value Source: NWS Daily Summary

Daily Weather History Graph

Daily Weather History Graph

Search for Another Location

Airport:

Trip Planner

Search our weather history database for the weather conditions in past years. The results will help you decide how hot, cold, wet, or windy it might be!

Date:

Astronomy

Jul. 20, 2013 Rise Set
Actual Time 6:44 AM EDT 8:24 PM EDT
Civil Twilight 6:18 AM EDT 8:50 PM EDT
Nautical Twilight 5:47 AM EDT 9:21 PM EDT
Astronomical Twilight 5:14 AM EDT 9:53 PM EDT
Moon 6:27 PM EDT (7/20) 4:22 AM EDT (7/20)
Length of Visible Light 14h 31m
Length of Day
13h 40m
Waxing Gibbous, 93% of the Moon is Illuminated
Jul 20
Waxing Gibbous
Jul 22
Full
Jul 29
Last Quarter
Aug 6
New
Aug 14
First Quarter

Hourly Weather History & Observations

Time (EDT) Temp. Heat Index Dew Point Humidity Pressure Visibility Wind Dir Wind Speed Gust Speed Precip Events Conditions
12:15 AM 71.6 °F - 69.8 °F 94% 30.13 in - ESE 3.5 mph - N/A   Unknown
12:35 AM 71.6 °F - 69.8 °F 94% 30.13 in - SE 3.5 mph - N/A   Unknown
12:55 AM 71.6 °F - 69.8 °F 94% 30.12 in - ESE 4.6 mph - N/A   Unknown
1:15 AM 71.6 °F - 69.8 °F 94% 30.11 in 10.0 mi Calm Calm - N/A   Mostly Cloudy
1:35 AM 71.6 °F - 69.8 °F 94% 30.11 in - Calm Calm - N/A   Unknown
1:55 AM 71.6 °F - 69.8 °F 94% 30.11 in 10.0 mi Calm Calm - N/A   Clear
2:15 AM 71.6 °F - 69.8 °F 94% 30.10 in 10.0 mi Calm Calm - N/A   Clear
2:35 AM 71.6 °F - 69.8 °F 94% 30.09 in 10.0 mi Calm Calm - N/A   Clear
2:55 AM 71.6 °F - 69.8 °F 94% 30.09 in 10.0 mi Calm Calm - N/A   Clear
3:15 AM 71.6 °F - 69.8 °F 94% 30.08 in - ESE 3.5 mph - N/A   Unknown
3:35 AM 71.6 °F - 69.8 °F 94% 30.07 in 10.0 mi East 3.5 mph - N/A   Clear
3:55 AM 71.6 °F - 69.8 °F 94% 30.07 in 10.0 mi Calm Calm - N/A   Clear
4:15 AM 71.6 °F - 69.8 °F 94% 30.07 in 10.0 mi Calm Calm - N/A   Clear
4:35 AM 71.6 °F - 69.8 °F 94% 30.07 in 10.0 mi Calm Calm - N/A   Clear
4:55 AM 71.6 °F - 69.8 °F 94% 30.07 in - East 4.6 mph - N/A   Unknown
5:15 AM 71.6 °F - 69.8 °F 94% 30.06 in - Calm Calm - N/A   Unknown
5:35 AM 71.6 °F - 69.8 °F 94% 30.07 in 10.0 mi Calm Calm - N/A   Clear
5:50 AM 73.4 °F - 71.6 °F 94% 30.07 in 12.0 mi Calm Calm - N/A   Mostly Cloudy
5:55 AM 71.6 °F - 69.8 °F 94% 30.07 in - Calm Calm - N/A   Unknown
6:15 AM 71.6 °F - 71.6 °F 100% 30.07 in - Calm Calm - N/A   Unknown
6:35 AM 71.6 °F - 71.6 °F 100% 30.08 in - East 3.5 mph - N/A   Unknown
6:50 AM 73.4 °F - 71.6 °F 94% 30.09 in 12.0 mi Calm Calm - N/A   Overcast
7:50 AM 73.4 °F - 73.4 °F 100% 30.10 in 12.0 mi ESE 5.8 mph - N/A   Overcast
8:50 AM 77.0 °F - 73.4 °F 89% 30.12 in 10.0 mi SE 5.8 mph - N/A   Mostly Cloudy
9:27 AM 78.8 °F - 75.2 °F 89% 30.12 in 7.0 mi Calm Calm - N/A   Overcast
9:50 AM 80.6 °F 86.2 °F 75.2 °F 84% 30.12 in 8.0 mi SSE 5.8 mph - N/A   Overcast
10:50 AM 82.4 °F 89.5 °F 75.2 °F 79% 30.12 in 8.0 mi SSE 3.5 mph - N/A   Overcast
12:50 PM 86.0 °F 93.4 °F 73.4 °F 66% 30.12 in 10.0 mi SSE 5.8 mph - N/A   Overcast
1:50 PM 87.8 °F 93.8 °F 71.6 °F 58% 30.09 in 15.0 mi South 4.6 mph - N/A   Mostly Cloudy
2:50 PM 89.6 °F 96.2 °F 71.6 °F 55% 30.06 in 15.0 mi Calm Calm - N/A   Mostly Cloudy
3:50 PM 91.4 °F 96.8 °F 69.8 °F 49% 30.04 in 15.0 mi Calm Calm - N/A   Mostly Cloudy
4:50 PM 80.6 °F 83.9 °F 69.8 °F 70% 30.05 in 7.0 mi ESE 18.4 mph 27.6 mph N/A Thunderstorm Mostly Cloudy
5:05 PM 78.8 °F - 69.8 °F 74% 30.08 in 0.5 mi South 10.4 mph 17.3 mph N/A Rain Rain
5:50 PM 71.6 °F - 71.6 °F 100% 30.10 in 1.0 mi SSW 9.2 mph - N/A Rain Rain
6:05 PM 71.6 °F - 71.6 °F 100% 30.10 in 3.0 mi West 4.6 mph - N/A Rain Rain
6:52 PM 73.4 °F - 71.6 °F 94% 30.06 in 10.0 mi Calm Calm - N/A Rain Light Rain
8:51 PM 75.2 °F - 73.4 °F 94% 30.06 in 12.0 mi Calm Calm - N/A   Mostly Cloudy
9:52 PM 73.4 °F - 71.6 °F 94% 30.08 in 12.0 mi East 3.5 mph - N/A   Overcast
10:55 PM 73.4 °F - 71.6 °F 94% 30.10 in 10.0 mi Calm Calm - N/A   Clear
11:15 PM 73.4 °F - 71.6 °F 94% 30.10 in 10.0 mi Calm Calm - N/A   Clear
11:35 PM 73.4 °F - 71.6 °F 94% 30.11 in 10.0 mi Calm Calm - N/A   Clear
11:55 PM 73.4 °F - 71.6 °F 94% 30.10 in - North - - N/A   Unknown